contact:dominique.lefevre@mio.osupytheas.fr, maurice.libes@osupytheas.fr, didier.mallarino@osupytheas.fr
Project:EMSO http://www.emso-fr.org/EMSO-France
Depth: 2436.0 m
Title:EMSO Ligure Ouest : Data MII capteur MICROCAT
DateTime_Computer,Latitude,Longitude,Temperature,Conductivity,Pressure,DateTime_Instrument
DateTime_Computer,Latitude,Longitude,degC,S m-1,dbar,DateTime_Instrument
2022-01-25T00:02:45Z,42.805,6.029,13.3015,4.60057,2470.446,2022-1-25T02:04:17Z
2022-01-25T00:05:48Z,42.805,6.029,13.3002,4.60046,2470.497,2022-1-25T02:07:20Z
2022-01-25T00:08:51Z,42.805,6.029,13.3004,4.60045,2470.497,2022-1-25T02:10:23Z
2022-01-25T00:11:54Z,42.805,6.029,13.3006,4.60047,2470.483,2022-1-25T02:13:26Z
2022-01-25T00:14:58Z,42.805,6.029,13.3011,4.60072,2470.507,2022-1-25T02:16:29Z
2022-01-25T00:18:01Z,42.805,6.029,13.3004,4.60058,2470.474,2022-1-25T02:19:32Z
2022-01-25T00:21:04Z,42.805,6.029,13.3004,4.60057,2470.483,2022-1-25T02:22:36Z
2022-01-25T00:24:07Z,42.805,6.029,13.3010,4.60046,2470.497,2022-1-25T02:25:39Z
2022-01-25T00:27:10Z,42.805,6.029,13.3006,4.60065,2470.483,2022-1-25T02:28:42Z
2022-01-25T00:30:13Z,42.805,6.029,13.3018,4.60063,2470.46,2022-1-25T02:31:45Z
2022-01-25T00:33:16Z,42.805,6.029,13.3010,4.60051,2470.437,2022-1-25T02:34:48Z
2022-01-25T00:36:19Z,42.805,6.029,13.3014,4.60046,2470.483,2022-1-25T02:37:51Z
2022-01-25T00:39:23Z,42.805,6.029,13.3007,4.60058,2470.474,2022-1-25T02:40:54Z
2022-01-25T00:42:26Z,42.805,6.029,13.3008,4.60058,2470.497,2022-1-25T02:43:58Z
2022-01-25T00:45:29Z,42.805,6.029,13.3019,4.60084,2470.497,2022-1-25T02:47:01Z
2022-01-25T00:48:32Z,42.805,6.029,13.3016,4.60046,2470.46,2022-1-25T02:50:04Z
2022-01-25T00:51:35Z,42.805,6.029,13.3015,4.60059,2470.52,2022-1-25T02:53:07Z
2022-01-25T00:54:38Z,42.805,6.029,13.3007,4.60072,2470.437,2022-1-25T02:56:10Z
2022-01-25T00:57:41Z,42.805,6.029,13.3009,4.60061,2470.497,2022-1-25T02:59:13Z
2022-01-25T01:00:44Z,42.805,6.029,13.3009,4.60052,2470.46,2022-1-25T03:02:16Z
2022-01-25T01:03:48Z,42.805,6.029,13.3016,4.60082,2470.437,2022-1-25T03:05:19Z
2022-01-25T01:06:51Z,42.805,6.029,13.3002,4.60047,2470.45,2022-1-25T03:08:22Z
2022-01-25T01:09:54Z,42.805,6.029,13.3006,4.60049,2470.413,2022-1-25T03:11:26Z
2022-01-25T01:12:57Z,42.805,6.029,13.3009,4.60048,2470.46,2022-1-25T03:14:29Z
2022-01-25T01:16:00Z,42.805,6.029,13.3000,4.60042,2470.474,2022-1-25T03:17:32Z
2022-01-25T01:19:03Z,42.805,6.029,13.3007,4.60046,2470.437,2022-1-25T03:20:35Z
2022-01-25T01:22:06Z,42.805,6.029,13.3011,4.60049,2470.45,2022-1-25T03:23:38Z
2022-01-25T01:25:09Z,42.805,6.029,13.3013,4.60052,2470.46,2022-1-25T03:26:41Z
2022-01-25T01:28:13Z,42.805,6.029,13.3004,4.60044,2470.437,2022-1-25T03:29:44Z
2022-01-25T01:31:16Z,42.805,6.029,13.3007,4.60046,2470.413,2022-1-25T03:32:47Z
2022-01-25T01:34:19Z,42.805,6.029,13.3007,4.60072,2470.437,2022-1-25T03:35:51Z
2022-01-25T01:37:22Z,42.805,6.029,13.3006,4.60056,2470.437,2022-1-25T03:38:54Z
2022-01-25T01:40:25Z,42.805,6.029,13.3024,4.60062,2470.45,2022-1-25T03:41:57Z
2022-01-25T01:43:28Z,42.805,6.029,13.3005,4.60051,2470.404,2022-1-25T03:45:00Z
2022-01-25T01:46:31Z,42.805,6.029,13.3007,4.60048,2470.45,2022-1-25T03:48:03Z
2022-01-25T01:49:34Z,42.805,6.029,13.3006,4.60053,2470.427,2022-1-25T03:51:06Z
2022-01-25T01:52:38Z,42.805,6.029,13.3006,4.60058,2470.39,2022-1-25T03:54:09Z
2022-01-25T01:55:41Z,42.805,6.029,13.3008,4.60044,2470.413,2022-1-25T03:57:12Z
2022-01-25T01:58:44Z,42.805,6.029,13.3006,4.60049,2470.413,2022-1-25T04:00:16Z
2022-01-25T02:01:47Z,42.805,6.029,13.3006,4.60067,2470.413,2022-1-25T04:03:19Z
2022-01-25T02:04:50Z,42.805,6.029,13.3007,4.60044,2470.413,2022-1-25T04:06:22Z
2022-01-25T02:07:53Z,42.805,6.029,13.3005,4.60043,2470.413,2022-1-25T04:09:25Z
2022-01-25T02:10:56Z,42.805,6.029,13.3004,4.60045,2470.413,2022-1-25T04:12:28Z
2022-01-25T02:13:59Z,42.805,6.029,13.3004,4.60058,2470.413,2022-1-25T04:15:31Z
2022-01-25T02:17:02Z,42.805,6.029,13.3012,4.60048,2470.413,2022-1-25T04:18:34Z
2022-01-25T02:20:06Z,42.805,6.029,13.3006,4.60045,2470.437,2022-1-25T04:21:37Z
2022-01-25T02:23:09Z,42.805,6.029,13.3008,4.60044,2470.427,2022-1-25T04:24:41Z
2022-01-25T02:26:12Z,42.805,6.029,13.3009,4.60083,2470.39,2022-1-25T04:27:44Z
2022-01-25T02:29:15Z,42.805,6.029,13.3012,4.60049,2470.39,2022-1-25T04:30:47Z
2022-01-25T02:32:18Z,42.805,6.029,13.3008,4.60052,2470.39,2022-1-25T04:33:50Z
2022-01-25T02:35:21Z,42.805,6.029,13.3006,4.60050,2470.427,2022-1-25T04:36:53Z
2022-01-25T02:38:24Z,42.805,6.029,13.3015,4.60049,2470.366,2022-1-25T04:39:56Z
2022-01-25T02:41:27Z,42.805,6.029,13.3009,4.60072,2470.427,2022-1-25T04:42:59Z
2022-01-25T02:44:31Z,42.805,6.029,13.3011,4.60048,2470.366,2022-1-25T04:46:02Z
2022-01-25T02:47:34Z,42.805,6.029,13.3011,4.60067,2470.39,2022-1-25T04:49:06Z
2022-01-25T02:50:37Z,42.805,6.029,13.3009,4.60044,2470.366,2022-1-25T04:52:09Z
2022-01-25T02:53:40Z,42.805,6.029,13.3001,4.60067,2470.413,2022-1-25T04:55:12Z
2022-01-25T02:56:43Z,42.805,6.029,13.3015,4.60098,2470.427,2022-1-25T04:58:15Z
2022-01-25T02:59:46Z,42.805,6.029,13.3018,4.60068,2470.366,2022-1-25T05:01:18Z
2022-01-25T03:02:49Z,42.805,6.029,13.3011,4.60079,2470.366,2022-1-25T05:04:21Z
2022-01-25T03:05:52Z,42.805,6.029,13.3018,4.60086,2470.38,2022-1-25T05:07:24Z
2022-01-25T03:08:56Z,42.805,6.029,13.3015,4.60081,2470.343,2022-1-25T05:10:27Z
2022-01-25T03:11:59Z,42.805,6.029,13.3014,4.60087,2470.413,2022-1-25T05:13:31Z
2022-01-25T03:15:02Z,42.805,6.029,13.3011,4.60074,2470.39,2022-1-25T05:16:34Z
2022-01-25T03:18:05Z,42.805,6.029,13.3013,4.60084,2470.38,2022-1-25T05:19:37Z
2022-01-25T03:21:08Z,42.805,6.029,13.3006,4.60048,2470.343,2022-1-25T05:22:40Z
2022-01-25T03:24:11Z,42.805,6.029,13.3026,4.60079,2470.357,2022-1-25T05:25:43Z
2022-01-25T03:27:14Z,42.805,6.029,13.2999,4.60055,2470.366,2022-1-25T05:28:46Z
2022-01-25T03:30:17Z,42.805,6.029,13.3006,4.60047,2470.38,2022-1-25T05:31:49Z
2022-01-25T03:33:21Z,42.805,6.029,13.3009,4.60046,2470.357,2022-1-25T05:34:52Z
2022-01-25T03:36:24Z,42.805,6.029,13.3006,4.60040,2470.357,2022-1-25T05:37:56Z
2022-01-25T03:39:27Z,42.805,6.029,13.3008,4.60046,2470.343,2022-1-25T05:40:59Z
2022-01-25T03:42:30Z,42.805,6.029,13.3002,4.60041,2470.343,2022-1-25T05:44:02Z
2022-01-25T03:45:33Z,42.805,6.029,13.3008,4.60057,2470.343,2022-1-25T05:47:05Z
2022-01-25T03:48:36Z,42.805,6.029,13.3009,4.60074,2470.32,2022-1-25T05:50:08Z
2022-01-25T03:51:39Z,42.805,6.029,13.3010,4.60074,2470.343,2022-1-25T05:53:11Z
2022-01-25T03:54:42Z,42.805,6.029,13.3015,4.60068,2470.343,2022-1-25T05:56:14Z
2022-01-25T03:57:46Z,42.805,6.029,13.3016,4.60070,2470.334,2022-1-25T05:59:17Z
2022-01-25T04:00:49Z,42.805,6.029,13.3014,4.60076,2470.334,2022-1-25T06:02:20Z
2022-01-25T04:03:52Z,42.805,6.029,13.3025,4.60072,2470.32,2022-1-25T06:05:24Z
2022-01-25T04:06:55Z,42.805,6.029,13.3008,4.60069,2470.32,2022-1-25T06:08:27Z
2022-01-25T04:09:58Z,42.805,6.029,13.3005,4.60055,2470.334,2022-1-25T06:11:30Z
2022-01-25T04:13:01Z,42.805,6.029,13.3014,4.60088,2470.32,2022-1-25T06:14:33Z
2022-01-25T04:16:04Z,42.805,6.029,13.3021,4.60069,2470.343,2022-1-25T06:17:36Z
2022-01-25T04:19:07Z,42.805,6.029,13.3033,4.60067,2470.32,2022-1-25T06:20:39Z
2022-01-25T04:22:11Z,42.805,6.029,13.3038,4.60090,2470.334,2022-1-25T06:23:42Z
2022-01-25T04:25:14Z,42.805,6.029,13.3034,4.60104,2470.31,2022-1-25T06:26:45Z
2022-01-25T04:28:17Z,42.805,6.029,13.3025,4.60081,2470.287,2022-1-25T06:29:49Z
2022-01-25T04:31:20Z,42.805,6.029,13.3016,4.60076,2470.273,2022-1-25T06:32:52Z
2022-01-25T04:34:23Z,42.805,6.029,13.3016,4.60089,2470.297,2022-1-25T06:35:55Z
2022-01-25T04:37:26Z,42.805,6.029,13.3024,4.60069,2470.297,2022-1-25T06:38:58Z
2022-01-25T04:40:29Z,42.805,6.029,13.3007,4.60060,2470.297,2022-1-25T06:42:01Z
2022-01-25T04:43:32Z,42.805,6.029,13.3010,4.60064,2470.334,2022-1-25T06:45:04Z
2022-01-25T04:46:35Z,42.805,6.029,13.3019,4.60084,2470.297,2022-1-25T06:48:07Z
2022-01-25T04:49:39Z,42.805,6.029,13.3008,4.60059,2470.287,2022-1-25T06:51:10Z
2022-01-25T04:52:42Z,42.805,6.029,13.3021,4.60056,2470.32,2022-1-25T06:54:14Z
2022-01-25T04:55:45Z,42.805,6.029,13.3004,4.60069,2470.297,2022-1-25T06:57:17Z
2022-01-25T04:58:48Z,42.805,6.029,13.3021,4.60057,2470.273,2022-1-25T07:00:20Z
2022-01-25T05:01:51Z,42.805,6.029,13.3007,4.60090,2470.25,2022-1-25T07:03:23Z
2022-01-25T05:04:54Z,42.805,6.029,13.3016,4.60072,2470.31,2022-1-25T07:06:26Z
2022-01-25T05:07:57Z,42.805,6.029,13.3019,4.60069,2470.32,2022-1-25T07:09:29Z
2022-01-25T05:11:00Z,42.805,6.029,13.3034,4.60081,2470.334,2022-1-25T07:12:32Z
2022-01-25T05:14:04Z,42.805,6.029,13.3015,4.60084,2470.297,2022-1-25T07:15:35Z
2022-01-25T05:17:07Z,42.805,6.029,13.3024,4.60075,2470.25,2022-1-25T07:18:39Z
2022-01-25T05:20:10Z,42.805,6.029,13.3022,4.60097,2470.287,2022-1-25T07:21:42Z
2022-01-25T05:23:13Z,42.805,6.029,13.3036,4.60106,2470.287,2022-1-25T07:24:45Z
2022-01-25T05:26:16Z,42.805,6.029,13.3055,4.60060,2470.287,2022-1-25T07:27:48Z
2022-01-25T05:29:19Z,42.805,6.029,13.3039,4.60095,2470.31,2022-1-25T07:30:51Z
2022-01-25T05:32:22Z,42.805,6.029,13.3048,4.60115,2470.287,2022-1-25T07:33:54Z
2022-01-25T05:35:25Z,42.805,6.029,13.3053,4.60096,2470.287,2022-1-25T07:36:57Z
2022-01-25T05:38:29Z,42.805,6.029,13.3026,4.60102,2470.273,2022-1-25T07:40:00Z
2022-01-25T05:41:32Z,42.805,6.029,13.3019,4.60069,2470.273,2022-1-25T07:43:04Z
2022-01-25T05:44:35Z,42.805,6.029,13.3004,4.60074,2470.287,2022-1-25T07:46:07Z
2022-01-25T05:47:38Z,42.805,6.029,13.3006,4.60109,2470.287,2022-1-25T07:49:10Z
2022-01-25T05:50:41Z,42.805,6.029,13.3024,4.60094,2470.297,2022-1-25T07:52:13Z
2022-01-25T05:53:44Z,42.805,6.029,13.3027,4.60056,2470.287,2022-1-25T07:55:16Z
2022-01-25T05:56:47Z,42.805,6.029,13.3014,4.60089,2470.273,2022-1-25T07:58:19Z
2022-01-25T05:59:50Z,42.805,6.029,13.3008,4.60084,2470.227,2022-1-25T08:01:22Z
2022-01-25T06:02:54Z,42.805,6.029,13.3011,4.60092,2470.287,2022-1-25T08:04:25Z
2022-01-25T06:05:57Z,42.805,6.029,13.3019,4.60086,2470.273,2022-1-25T08:07:28Z
2022-01-25T06:09:00Z,42.805,6.029,13.3037,4.60105,2470.287,2022-1-25T08:10:32Z
2022-01-25T06:12:03Z,42.805,6.029,13.3014,4.60104,2470.287,2022-1-25T08:13:35Z
2022-01-25T06:15:06Z,42.805,6.029,13.3010,4.60076,2470.25,2022-1-25T08:16:38Z
2022-01-25T06:18:09Z,42.805,6.029,13.3036,4.60099,2470.273,2022-1-25T08:19:41Z
2022-01-25T06:21:12Z,42.805,6.029,13.3014,4.60102,2470.287,2022-1-25T08:22:44Z
2022-01-25T06:24:15Z,42.805,6.029,13.3041,4.60072,2470.264,2022-1-25T08:25:47Z
2022-01-25T06:27:19Z,42.805,6.029,13.3014,4.60095,2470.264,2022-1-25T08:28:50Z
2022-01-25T06:30:22Z,42.805,6.029,13.3015,4.60076,2470.273,2022-1-25T08:31:53Z
2022-01-25T06:33:25Z,42.805,6.029,13.3037,4.60062,2470.31,2022-1-25T08:34:57Z
2022-01-25T06:36:28Z,42.805,6.029,13.3031,4.60113,2470.287,2022-1-25T08:38:00Z
2022-01-25T06:39:31Z,42.805,6.029,13.3020,4.60114,2470.264,2022-1-25T08:41:03Z
2022-01-25T06:42:34Z,42.805,6.029,13.3021,4.60096,2470.273,2022-1-25T08:44:06Z
2022-01-25T06:45:37Z,42.805,6.029,13.3034,4.60094,2470.273,2022-1-25T08:47:09Z
2022-01-25T06:48:40Z,42.805,6.029,13.3042,4.60072,2470.25,2022-1-25T08:50:12Z
2022-01-25T06:51:44Z,42.805,6.029,13.3026,4.60089,2470.25,2022-1-25T08:53:15Z
2022-01-25T06:54:47Z,42.805,6.029,13.3020,4.60077,2470.25,2022-1-25T08:56:18Z
2022-01-25T06:57:50Z,42.805,6.029,13.3019,4.60089,2470.25,2022-1-25T08:59:22Z
2022-01-25T07:00:53Z,42.805,6.029,13.3028,4.60099,2470.264,2022-1-25T09:02:25Z
2022-01-25T07:03:56Z,42.805,6.029,13.3029,4.60080,2470.264,2022-1-25T09:05:28Z
2022-01-25T07:06:59Z,42.805,6.029,13.3027,4.60072,2470.287,2022-1-25T09:08:31Z
2022-01-25T07:10:02Z,42.805,6.029,13.3023,4.60088,2470.287,2022-1-25T09:11:34Z
2022-01-25T07:13:05Z,42.805,6.029,13.3015,4.60097,2470.264,2022-1-25T09:14:37Z
2022-01-25T07:16:08Z,42.805,6.029,13.3023,4.60083,2470.273,2022-1-25T09:17:40Z
2022-01-25T07:19:12Z,42.805,6.029,13.3018,4.60101,2470.273,2022-1-25T09:20:43Z
2022-01-25T07:22:15Z,42.805,6.029,13.3026,4.60113,2470.297,2022-1-25T09:23:47Z
2022-01-25T07:25:18Z,42.805,6.029,13.3031,4.60119,2470.25,2022-1-25T09:26:50Z
2022-01-25T07:28:21Z,42.805,6.029,13.3013,4.60107,2470.25,2022-1-25T09:29:53Z
2022-01-25T07:31:24Z,42.805,6.029,13.3014,4.60117,2470.264,2022-1-25T09:32:56Z
2022-01-25T07:34:27Z,42.805,6.029,13.3019,4.60120,2470.287,2022-1-25T09:35:59Z
2022-01-25T07:37:30Z,42.805,6.029,13.3026,4.60119,2470.25,2022-1-25T09:39:02Z
2022-01-25T07:40:33Z,42.805,6.029,13.3025,4.60119,2470.25,2022-1-25T09:42:05Z
2022-01-25T07:43:37Z,42.805,6.029,13.3028,4.60096,2470.301,2022-1-25T09:45:08Z
2022-01-25T07:46:40Z,42.805,6.029,13.3040,4.60074,2470.264,2022-1-25T09:48:12Z
2022-01-25T07:49:43Z,42.805,6.029,13.3041,4.60086,2470.31,2022-1-25T09:51:15Z
2022-01-25T07:52:46Z,42.805,6.029,13.3042,4.60098,2470.287,2022-1-25T09:54:18Z
2022-01-25T07:55:49Z,42.805,6.029,13.3024,4.60087,2470.287,2022-1-25T09:57:21Z
2022-01-25T07:58:52Z,42.805,6.029,13.3026,4.60094,2470.297,2022-1-25T10:00:24Z
2022-01-25T08:01:55Z,42.805,6.029,13.3014,4.60102,2470.25,2022-1-25T10:03:27Z
2022-01-25T08:04:58Z,42.805,6.029,13.3017,4.60095,2470.31,2022-1-25T10:06:30Z
2022-01-25T08:08:02Z,42.805,6.029,13.3026,4.60059,2470.287,2022-1-25T10:09:33Z
2022-01-25T08:11:05Z,42.805,6.029,13.3020,4.60085,2470.31,2022-1-25T10:12:37Z
2022-01-25T08:14:08Z,42.805,6.029,13.3019,4.60114,2470.31,2022-1-25T10:15:40Z
2022-01-25T08:17:11Z,42.805,6.029,13.3014,4.60108,2470.32,2022-1-25T10:18:43Z
2022-01-25T08:20:14Z,42.805,6.029,13.3023,4.60094,2470.273,2022-1-25T10:21:46Z
2022-01-25T08:23:17Z,42.805,6.029,13.3025,4.60087,2470.264,2022-1-25T10:24:49Z
2022-01-25T08:26:20Z,42.805,6.029,13.3031,4.60074,2470.287,2022-1-25T10:27:52Z
2022-01-25T08:29:24Z,42.805,6.029,13.3031,4.60099,2470.25,2022-1-25T10:30:55Z
2022-01-25T08:32:27Z,42.805,6.029,13.3035,4.60061,2470.287,2022-1-25T10:33:58Z
2022-01-25T08:35:30Z,42.805,6.029,13.3036,4.60054,2470.32,2022-1-25T10:37:02Z
2022-01-25T08:38:33Z,42.805,6.029,13.3017,4.60050,2470.31,2022-1-25T10:40:05Z
2022-01-25T08:41:36Z,42.805,6.029,13.3034,4.60044,2470.273,2022-1-25T10:43:08Z
2022-01-25T08:44:39Z,42.805,6.029,13.3032,4.60062,2470.273,2022-1-25T10:46:11Z
2022-01-25T08:47:42Z,42.805,6.029,13.3029,4.60066,2470.297,2022-1-25T10:49:14Z
2022-01-25T08:50:45Z,42.805,6.029,13.3032,4.60072,2470.297,2022-1-25T10:52:17Z
2022-01-25T08:53:49Z,42.805,6.029,13.3021,4.60067,2470.297,2022-1-25T10:55:20Z
2022-01-25T08:56:52Z,42.805,6.029,13.3036,4.60059,2470.31,2022-1-25T10:58:23Z
2022-01-25T08:59:55Z,42.805,6.029,13.3028,4.60038,2470.32,2022-1-25T11:01:27Z
2022-01-25T09:02:58Z,42.805,6.029,13.3023,4.60062,2470.297,2022-1-25T11:04:30Z
2022-01-25T09:06:01Z,42.805,6.029,13.3024,4.60076,2470.32,2022-1-25T11:07:33Z
2022-01-25T09:09:04Z,42.805,6.029,13.3028,4.60064,2470.287,2022-1-25T11:10:36Z
2022-01-25T09:12:07Z,42.805,6.029,13.3018,4.60061,2470.334,2022-1-25T11:13:39Z
2022-01-25T09:15:10Z,42.805,6.029,13.3030,4.60064,2470.297,2022-1-25T11:16:42Z
2022-01-25T09:18:14Z,42.805,6.029,13.3020,4.60064,2470.32,2022-1-25T11:19:45Z
2022-01-25T09:21:17Z,42.805,6.029,13.3023,4.60087,2470.32,2022-1-25T11:22:49Z
2022-01-25T09:24:20Z,42.805,6.029,13.3029,4.60094,2470.334,2022-1-25T11:25:52Z
2022-01-25T09:27:23Z,42.805,6.029,13.3026,4.60069,2470.32,2022-1-25T11:28:55Z
2022-01-25T09:30:26Z,42.805,6.029,13.3024,4.60061,2470.357,2022-1-25T11:31:58Z
2022-01-25T09:33:29Z,42.805,6.029,13.3024,4.60062,2470.334,2022-1-25T11:35:01Z
2022-01-25T09:36:32Z,42.805,6.029,13.3025,4.60052,2470.366,2022-1-25T11:38:04Z
2022-01-25T09:39:35Z,42.805,6.029,13.3020,4.60043,2470.343,2022-1-25T11:41:07Z
2022-01-25T09:42:39Z,42.805,6.029,13.3026,4.60076,2470.357,2022-1-25T11:44:10Z
2022-01-25T09:45:42Z,42.805,6.029,13.3026,4.60064,2470.38,2022-1-25T11:47:14Z
2022-01-25T09:48:45Z,42.805,6.029,13.3027,4.60070,2470.366,2022-1-25T11:50:17Z
2022-01-25T09:51:48Z,42.805,6.029,13.3026,4.60046,2470.38,2022-1-25T11:53:20Z
2022-01-25T09:54:51Z,42.805,6.029,13.3026,4.60047,2470.39,2022-1-25T11:56:23Z
2022-01-25T09:57:54Z,42.805,6.029,13.3022,4.60067,2470.366,2022-1-25T11:59:26Z
2022-01-25T10:00:57Z,42.805,6.029,13.3014,4.60069,2470.404,2022-1-25T12:02:29Z
2022-01-25T10:04:00Z,42.805,6.029,13.3020,4.60043,2470.39,2022-1-25T12:05:32Z
2022-01-25T10:07:04Z,42.805,6.029,13.3019,4.60039,2470.38,2022-1-25T12:08:35Z
2022-01-25T10:10:07Z,42.805,6.029,13.3019,4.60051,2470.39,2022-1-25T12:11:39Z
2022-01-25T10:13:10Z,42.805,6.029,13.3019,4.60074,2470.366,2022-1-25T12:14:42Z
2022-01-25T10:16:13Z,42.805,6.029,13.3017,4.60073,2470.427,2022-1-25T12:17:45Z
2022-01-25T10:19:16Z,42.805,6.029,13.3012,4.60067,2470.39,2022-1-25T12:20:48Z
2022-01-25T10:22:19Z,42.805,6.029,13.3020,4.60079,2470.376,2022-1-25T12:23:51Z
2022-01-25T10:25:22Z,42.805,6.029,13.3014,4.60081,2470.39,2022-1-25T12:26:54Z
2022-01-25T10:28:26Z,42.805,6.029,13.3027,4.60053,2470.437,2022-1-25T12:29:57Z
2022-01-25T10:31:29Z,42.805,6.029,13.3013,4.60084,2470.413,2022-1-25T12:33:00Z
2022-01-25T10:34:32Z,42.805,6.029,13.3019,4.60074,2470.413,2022-1-25T12:36:04Z
2022-01-25T10:37:35Z,42.805,6.029,13.3021,4.60063,2470.437,2022-1-25T12:39:07Z
2022-01-25T10:40:38Z,42.805,6.029,13.3021,4.60046,2470.39,2022-1-25T12:42:10Z
2022-01-25T10:43:41Z,42.805,6.029,13.3022,4.60046,2470.413,2022-1-25T12:45:13Z
2022-01-25T10:46:44Z,42.805,6.029,13.3018,4.60067,2470.45,2022-1-25T12:48:16Z
2022-01-25T10:49:47Z,42.805,6.029,13.3026,4.60057,2470.413,2022-1-25T12:51:19Z
2022-01-25T10:52:51Z,42.805,6.029,13.3016,4.60064,2470.45,2022-1-25T12:54:22Z
2022-01-25T10:55:54Z,42.805,6.029,13.3019,4.60064,2470.413,2022-1-25T12:57:26Z
2022-01-25T10:58:57Z,42.805,6.029,13.3014,4.60042,2470.474,2022-1-25T13:00:29Z
2022-01-25T11:02:00Z,42.805,6.029,13.3026,4.60066,2470.437,2022-1-25T13:03:32Z
2022-01-25T11:05:03Z,42.805,6.029,13.3019,4.60052,2470.437,2022-1-25T13:06:35Z
2022-01-25T11:08:06Z,42.805,6.029,13.3016,4.60077,2470.45,2022-1-25T13:09:38Z
2022-01-25T11:11:09Z,42.805,6.029,13.3017,4.60060,2470.46,2022-1-25T13:12:41Z
2022-01-25T11:14:12Z,42.805,6.029,13.3017,4.60064,2470.46,2022-1-25T13:15:44Z
2022-01-25T11:17:16Z,42.805,6.029,13.3014,4.60049,2470.46,2022-1-25T13:18:47Z
2022-01-25T11:20:19Z,42.805,6.029,13.3020,4.60058,2470.437,2022-1-25T13:21:51Z
2022-01-25T11:23:22Z,42.805,6.029,13.3023,4.60046,2470.46,2022-1-25T13:24:54Z
2022-01-25T11:26:25Z,42.805,6.029,13.3014,4.60079,2470.45,2022-1-25T13:27:57Z
2022-01-25T11:29:28Z,42.805,6.029,13.3022,4.60069,2470.437,2022-1-25T13:31:00Z
2022-01-25T11:32:31Z,42.805,6.029,13.3020,4.60046,2470.45,2022-1-25T13:34:03Z
2022-01-25T11:35:34Z,42.805,6.029,13.3024,4.60074,2470.437,2022-1-25T13:37:06Z
2022-01-25T11:38:37Z,42.805,6.029,13.3015,4.60081,2470.437,2022-1-25T13:40:09Z
2022-01-25T11:41:41Z,42.805,6.029,13.3019,4.60079,2470.474,2022-1-25T13:43:12Z
2022-01-25T11:44:44Z,42.805,6.029,13.3029,4.60059,2470.45,2022-1-25T13:46:16Z
2022-01-25T11:47:47Z,42.805,6.029,13.3017,4.60070,2470.45,2022-1-25T13:49:19Z
2022-01-25T11:50:50Z,42.805,6.029,13.3011,4.60064,2470.497,2022-1-25T13:52:22Z
2022-01-25T11:53:53Z,42.805,6.029,13.3008,4.60062,2470.474,2022-1-25T13:55:25Z
2022-01-25T11:56:56Z,42.805,6.029,13.3018,4.60070,2470.474,2022-1-25T13:58:28Z
2022-01-25T11:59:59Z,42.805,6.029,13.3007,4.60047,2470.46,2022-1-25T14:01:31Z
2022-01-25T12:03:02Z,42.805,6.029,13.3009,4.60062,2470.474,2022-1-25T14:04:34Z
2022-01-25T12:06:06Z,42.805,6.029,13.3014,4.60074,2470.474,2022-1-25T14:07:37Z
2022-01-25T12:09:09Z,42.805,6.029,13.3011,4.60061,2470.474,2022-1-25T14:10:41Z
2022-01-25T12:12:12Z,42.805,6.029,13.3014,4.60052,2470.437,2022-1-25T14:13:44Z
2022-01-25T12:15:15Z,42.805,6.029,13.3009,4.60056,2470.483,2022-1-25T14:16:47Z
2022-01-25T12:18:18Z,42.805,6.029,13.3009,4.60059,2470.427,2022-1-25T14:19:50Z
2022-01-25T12:21:21Z,42.805,6.029,13.3009,4.60060,2470.483,2022-1-25T14:22:53Z
2022-01-25T12:24:24Z,42.805,6.029,13.3006,4.60054,2470.497,2022-1-25T14:25:56Z
2022-01-25T12:27:27Z,42.805,6.029,13.3004,4.60054,2470.46,2022-1-25T14:28:59Z
2022-01-25T12:30:31Z,42.805,6.029,13.3006,4.60054,2470.46,2022-1-25T14:32:02Z
2022-01-25T12:33:34Z,42.805,6.029,13.3004,4.60055,2470.474,2022-1-25T14:35:06Z
2022-01-25T12:36:37Z,42.805,6.029,13.3009,4.60066,2470.437,2022-1-25T14:38:09Z
2022-01-25T12:39:40Z,42.805,6.029,13.3004,4.60055,2470.483,2022-1-25T14:41:12Z
2022-01-25T12:42:43Z,42.805,6.029,13.3007,4.60056,2470.46,2022-1-25T14:44:15Z
2022-01-25T12:45:46Z,42.805,6.029,13.3011,4.60044,2470.46,2022-1-25T14:47:18Z
2022-01-25T12:48:49Z,42.805,6.029,13.3005,4.60060,2470.437,2022-1-25T14:50:21Z
2022-01-25T12:51:52Z,42.805,6.029,13.3004,4.60050,2470.46,2022-1-25T14:53:24Z
2022-01-25T12:54:56Z,42.805,6.029,13.3007,4.60046,2470.46,2022-1-25T14:56:27Z
2022-01-25T12:57:59Z,42.805,6.029,13.3000,4.60046,2470.413,2022-1-25T14:59:31Z
2022-01-25T13:01:02Z,42.805,6.029,13.3011,4.60053,2470.46,2022-1-25T15:02:34Z
2022-01-25T13:04:05Z,42.805,6.029,13.3008,4.60063,2470.483,2022-1-25T15:05:37Z
2022-01-25T13:07:08Z,42.805,6.029,13.3012,4.60058,2470.45,2022-1-25T15:08:40Z
2022-01-25T13:10:11Z,42.805,6.029,13.3011,4.60071,2470.45,2022-1-25T15:11:43Z
2022-01-25T13:13:14Z,42.805,6.029,13.3013,4.60053,2470.46,2022-1-25T15:14:46Z
2022-01-25T13:16:18Z,42.805,6.029,13.3003,4.60047,2470.46,2022-1-25T15:17:49Z
2022-01-25T13:19:21Z,42.805,6.029,13.3004,4.60054,2470.46,2022-1-25T15:20:52Z
2022-01-25T13:22:24Z,42.805,6.029,13.3016,4.60048,2470.474,2022-1-25T15:23:56Z
2022-01-25T13:25:27Z,42.805,6.029,13.3003,4.60050,2470.45,2022-1-25T15:26:59Z
2022-01-25T13:28:30Z,42.805,6.029,13.3004,4.60055,2470.437,2022-1-25T15:30:02Z
2022-01-25T13:31:33Z,42.805,6.029,13.3004,4.60050,2470.46,2022-1-25T15:33:05Z
2022-01-25T13:34:36Z,42.805,6.029,13.3004,4.60055,2470.413,2022-1-25T15:36:08Z
2022-01-25T13:37:39Z,42.805,6.029,13.3009,4.60052,2470.45,2022-1-25T15:39:11Z
2022-01-25T13:40:43Z,42.805,6.029,13.3008,4.60046,2470.46,2022-1-25T15:42:14Z
2022-01-25T13:43:46Z,42.805,6.029,13.3007,4.60044,2470.46,2022-1-25T15:45:18Z
2022-01-25T13:46:49Z,42.805,6.029,13.3006,4.60043,2470.474,2022-1-25T15:48:21Z
2022-01-25T13:49:52Z,42.805,6.029,13.3013,4.60057,2470.497,2022-1-25T15:51:24Z
2022-01-25T13:52:55Z,42.805,6.029,13.3004,4.60052,2470.46,2022-1-25T15:54:27Z
2022-01-25T13:55:58Z,42.805,6.029,13.3008,4.60042,2470.507,2022-1-25T15:57:30Z
2022-01-25T13:59:01Z,42.805,6.029,13.3010,4.60047,2470.46,2022-1-25T16:00:33Z
2022-01-25T14:02:04Z,42.805,6.029,13.3010,4.60049,2470.437,2022-1-25T16:03:36Z
2022-01-25T14:05:08Z,42.805,6.029,13.3004,4.60045,2470.45,2022-1-25T16:06:39Z
2022-01-25T14:08:11Z,42.805,6.029,13.3006,4.60046,2470.46,2022-1-25T16:09:43Z
2022-01-25T14:11:14Z,42.805,6.029,13.3006,4.60047,2470.446,2022-1-25T16:12:46Z
2022-01-25T14:14:17Z,42.805,6.029,13.3005,4.60049,2470.46,2022-1-25T16:15:49Z
2022-01-25T14:17:20Z,42.805,6.029,13.3004,4.60056,2470.45,2022-1-25T16:18:52Z
2022-01-25T14:20:23Z,42.805,6.029,13.3008,4.60057,2470.46,2022-1-25T16:21:55Z
2022-01-25T14:23:26Z,42.805,6.029,13.3014,4.60058,2470.45,2022-1-25T16:24:58Z
2022-01-25T14:26:29Z,42.805,6.029,13.3009,4.60055,2470.46,2022-1-25T16:28:01Z
2022-01-25T14:29:33Z,42.805,6.029,13.3008,4.60048,2470.474,2022-1-25T16:31:04Z
2022-01-25T14:32:36Z,42.805,6.029,13.3005,4.60055,2470.437,2022-1-25T16:34:08Z
2022-01-25T14:35:39Z,42.805,6.029,13.3007,4.60046,2470.437,2022-1-25T16:37:11Z
2022-01-25T14:38:42Z,42.805,6.029,13.3005,4.60050,2470.45,2022-1-25T16:40:14Z
2022-01-25T14:41:45Z,42.805,6.029,13.3003,4.60050,2470.437,2022-1-25T16:43:17Z
2022-01-25T14:44:48Z,42.805,6.029,13.3012,4.60058,2470.437,2022-1-25T16:46:20Z
2022-01-25T14:47:51Z,42.805,6.029,13.3003,4.60046,2470.437,2022-1-25T16:49:23Z
2022-01-25T14:50:54Z,42.805,6.029,13.3015,4.60049,2470.45,2022-1-25T16:52:26Z
2022-01-25T14:53:58Z,42.805,6.029,13.3005,4.60046,2470.45,2022-1-25T16:55:29Z
2022-01-25T14:57:01Z,42.805,6.029,13.3006,4.60044,2470.437,2022-1-25T16:58:33Z
2022-01-25T15:00:04Z,42.805,6.029,13.3012,4.60046,2470.427,2022-1-25T17:01:36Z
2022-01-25T15:03:07Z,42.805,6.029,13.3007,4.60057,2470.474,2022-1-25T17:04:39Z
2022-01-25T15:06:10Z,42.805,6.029,13.3009,4.60059,2470.46,2022-1-25T17:07:42Z
2022-01-25T15:09:13Z,42.805,6.029,13.3009,4.60054,2470.46,2022-1-25T17:10:45Z
2022-01-25T15:12:16Z,42.805,6.029,13.3004,4.60047,2470.45,2022-1-25T17:13:48Z
2022-01-25T15:15:19Z,42.805,6.029,13.3009,4.60049,2470.437,2022-1-25T17:16:51Z